• In Italy
  • List of Countries
  • For 7 days
  • Water Temperature
  • Satellite Maps
  • Weather Map
  • Weather Widgets
  • user-avatar
    Login

    Hourly Weather Mazari Sharif

    Today, 19 February, Monday

    Time Temperature Precipitation Wind Pressure Humidity
    00:00 +8°C° 0 mm 3 mps 654 mmHg 43%
    01:00 +8°C° 0 mm 3 mps 653 mmHg 44%
    02:00 +8°C° 0 mm 3 mps 653 mmHg 43%
    03:00 +8°C° 0 mm 3 mps 653 mmHg 43%
    04:00 +8°C° 0 mm 3 mps 652 mmHg 43%
    05:00 +8°C° 0 mm 3 mps 652 mmHg 43%
    06:00 +7°C° 0 mm 4 mps 652 mmHg 43%
    07:00 +7°C° 0 mm 4 mps 653 mmHg 43%
    08:00 +10°C° 0 mm 4 mps 653 mmHg 40%
    09:00 +12°C° 0 mm 3 mps 653 mmHg 38%
    10:00 +14°C° 0 mm 3 mps 654 mmHg 35%
    11:00 +16°C° 0 mm 3 mps 654 mmHg 33%
    12:00 +17°C° 0 mm 4 mps 654 mmHg 31%
    13:00 +18°C° 0 mm 4 mps 653 mmHg 29%
    14:00 +17°C° 0 mm 4 mps 653 mmHg 30%
    15:00 +17°C° 0 mm 4 mps 653 mmHg 31%
    16:00 +17°C° 0 mm 4 mps 653 mmHg 33%
    17:00 +15°C° 0 mm 4 mps 652 mmHg 35%
    18:00 +13°C° 0 mm 4 mps 652 mmHg 37%
    19:00 +12°C° 0 mm 4 mps 652 mmHg 39%
    20:00 +12°C° 0 mm 4 mps 652 mmHg 40%
    21:00 +12°C° 0 mm 4 mps 652 mmHg 40%
    22:00 +11°C° 0 mm 4 mps 652 mmHg 40%
    23:00 +11°C° 0.1 mm 4 mps 651 mmHg 40%

    Tomorrow, 20 February, Tuesday

    Time Temperature Precipitation Wind Pressure Humidity
    00:00 +11°C° 0.1 mm 4 mps 651 mmHg 40%
    01:00 +11°C° 0.1 mm 4 mps 651 mmHg 40%
    02:00 +11°C° 0.1 mm 4 mps 651 mmHg 41%
    03:00 +11°C° 0.1 mm 3 mps 651 mmHg 42%
    04:00 +11°C° 0.1 mm 3 mps 650 mmHg 44%
    05:00 +10°C° 0.3 mm 3 mps 651 mmHg 47%
    06:00 +10°C° 0.3 mm 3 mps 651 mmHg 51%
    07:00 +9°C° 0.3 mm 3 mps 651 mmHg 54%
    08:00 +10°C° 0.1 mm 3 mps 651 mmHg 52%
    09:00 +10°C° 0.1 mm 3 mps 651 mmHg 50%
    10:00 +11°C° 0.1 mm 3 mps 651 mmHg 48%
    11:00 +10°C° 0.2 mm 4 mps 651 mmHg 50%
    12:00 +9°C° 0.2 mm 6 mps 651 mmHg 53%
    13:00 +9°C° 0.2 mm 7 mps 651 mmHg 55%
    14:00 +8°C° 0.3 mm 7 mps 652 mmHg 61%
    15:00 +7°C° 0.3 mm 6 mps 652 mmHg 67%
    16:00 +4°C° 0.3 mm 6 mps 652 mmHg 73%
    17:00 +5°C° 0.3 mm 5 mps 653 mmHg 74%
    18:00 +5°C° 0.3 mm 5 mps 654 mmHg 74%
    19:00 +4°C° 0.3 mm 4 mps 655 mmHg 75%
    20:00 +4°C° 0.3 mm 4 mps 655 mmHg 77%
    21:00 +4°C° 0.3 mm 3 mps 655 mmHg 78%
    22:00 +3°C° 0.3 mm 3 mps 655 mmHg 79%
    23:00 +4°C° 0.1 mm 2 mps 655 mmHg 81%

    Day after tomorrow, 21 February, Wednesday

    Time Temperature Precipitation Wind Pressure Humidity
    00:00 +4°C° 0.1 mm 2 mps 655 mmHg 82%
    01:00 +3°C° 0.1 mm 2 mps 655 mmHg 84%
    02:00 +3°C° 0 mm 2 mps 655 mmHg 84%
    03:00 +4°C° 0 mm 1 mps 656 mmHg 85%
    04:00 +4°C° 0 mm 1 mps 656 mmHg 86%
    05:00 +4°C° 0 mm 1 mps 656 mmHg 85%
    06:00 +4°C° 0 mm 1 mps 656 mmHg 85%
    07:00 +4°C° 0 mm 1 mps 657 mmHg 84%
    08:00 +5°C° 0 mm 1 mps 657 mmHg 79%
    09:00 +5°C° 0 mm 2 mps 657 mmHg 74%
    10:00 +6°C° 0 mm 2 mps 657 mmHg 69%
    11:00 +7°C° 0 mm 2 mps 656 mmHg 65%
    12:00 +8°C° 0 mm 3 mps 656 mmHg 62%
    13:00 +9°C° 0 mm 3 mps 656 mmHg 59%
    14:00 +9°C° 0 mm 3 mps 656 mmHg 59%
    15:00 +9°C° 0 mm 3 mps 656 mmHg 59%
    16:00 +9°C° 0 mm 3 mps 655 mmHg 59%
    17:00 +9°C° 0 mm 2 mps 656 mmHg 63%
    18:00 +8°C° 0 mm 2 mps 656 mmHg 67%
    19:00 +8°C° 0 mm 1 mps 656 mmHg 71%
    20:00 +8°C° 0 mm 1 mps 656 mmHg 70%
    21:00 +7°C° 0 mm 2 mps 656 mmHg 70%
    22:00 +7°C° 0 mm 2 mps 656 mmHg 69%
    23:00 +6°C° 0 mm 2 mps 655 mmHg 69%

    22 February, Thursday

    Time Temperature Precipitation Wind Pressure Humidity
    00:00 +6°C° 0 mm 2 mps 655 mmHg 69%
    01:00 +6°C° 0 mm 2 mps 655 mmHg 69%
    02:00 +6°C° 0 mm 2 mps 654 mmHg 68%
    03:00 +6°C° 0 mm 2 mps 654 mmHg 67%
    04:00 +6°C° 0 mm 2 mps 654 mmHg 66%
    05:00 +6°C° 0 mm 2 mps 654 mmHg 63%
    06:00 +6°C° 0 mm 2 mps 654 mmHg 61%
    07:00 +6°C° 0 mm 2 mps 654 mmHg 58%
    08:00 +8°C° 0 mm 2 mps 654 mmHg 51%
    09:00 +10°C° 0 mm 2 mps 655 mmHg 45%
    10:00 +12°C° 0 mm 2 mps 655 mmHg 38%
    11:00 +13°C° 0 mm 2 mps 655 mmHg 36%
    12:00 +14°C° 0 mm 2 mps 654 mmHg 33%
    13:00 +14°C° 0 mm 3 mps 654 mmHg 31%
    14:00 +14°C° 0 mm 3 mps 654 mmHg 32%
    15:00 +14°C° 0 mm 2 mps 653 mmHg 33%
    16:00 +14°C° 0 mm 2 mps 653 mmHg 33%
    17:00 +13°C° 0 mm 2 mps 653 mmHg 38%
    18:00 +12°C° 0 mm 1 mps 653 mmHg 43%
    19:00 +11°C° 0 mm 1 mps 653 mmHg 48%
    20:00 +11°C° 0 mm 1 mps 653 mmHg 49%
    21:00 +10°C° 0 mm 0 mps 653 mmHg 49%
    22:00 +9°C° 0 mm 0 mps 653 mmHg 50%
    23:00 +9°C° 0 mm 0 mps 653 mmHg 50%

    23 February, Friday

    Time Temperature Precipitation Wind Pressure Humidity
    00:00 +9°C° 0 mm 0 mps 653 mmHg 50%
    01:00 +9°C° 0 mm 0 mps 653 mmHg 50%
    02:00 +8°C° 0 mm 0 mps 653 mmHg 50%
    03:00 +8°C° 0 mm 0 mps 653 mmHg 51%
    04:00 +8°C° 0 mm 0 mps 653 mmHg 51%
    05:00 +8°C° 0 mm 0 mps 653 mmHg 52%
    06:00 +8°C° 0 mm 0 mps 653 mmHg 53%
    07:00 +8°C° 0 mm 0 mps 654 mmHg 54%
    08:00 +9°C° 0 mm 0 mps 654 mmHg 48%
    09:00 +11°C° 0 mm 1 mps 654 mmHg 42%
    10:00 +13°C° 0 mm 1 mps 655 mmHg 36%
    11:00 +13°C° 0 mm 1 mps 655 mmHg 35%
    12:00 +14°C° 0 mm 2 mps 654 mmHg 33%
    13:00 +15°C° 0 mm 2 mps 654 mmHg 32%
    14:00 +14°C° 0 mm 3 mps 654 mmHg 33%
    15:00 +14°C° 0 mm 3 mps 654 mmHg 33%
    16:00 +14°C° 0 mm 3 mps 654 mmHg 34%
    17:00 +13°C° 0 mm 3 mps 654 mmHg 38%
    18:00 +13°C° 0 mm 2 mps 654 mmHg 42%
    19:00 +12°C° 0 mm 2 mps 654 mmHg 45%
    20:00 +10°C° 0 mm 2 mps 654 mmHg 46%
    21:00 +10°C° 0 mm 2 mps 654 mmHg 47%
    22:00 +9°C° 0 mm 2 mps 654 mmHg 48%
    23:00 +9°C° 0 mm 2 mps 653 mmHg 48%

    24 February, Saturday

    Time Temperature Precipitation Wind Pressure Humidity
    00:00 +9°C° 0 mm 2 mps 653 mmHg 47%
    01:00 +9°C° 0 mm 2 mps 653 mmHg 47%
    02:00 +8°C° 0 mm 2 mps 653 mmHg 47%
    03:00 +8°C° 0 mm 2 mps 652 mmHg 47%
    04:00 +8°C° 0 mm 2 mps 652 mmHg 46%
    05:00 +8°C° 0 mm 2 mps 652 mmHg 46%
    06:00 +8°C° 0 mm 3 mps 652 mmHg 45%
    07:00 +8°C° 0 mm 3 mps 653 mmHg 45%
    08:00 +10°C° 0 mm 2 mps 653 mmHg 40%
    09:00 +13°C° 0 mm 2 mps 653 mmHg 36%
    10:00 +14°C° 0 mm 2 mps 654 mmHg 32%
    11:00 +15°C° 0 mm 2 mps 654 mmHg 30%
    12:00 +16°C° 0 mm 2 mps 653 mmHg 28%
    13:00 +17°C° 0 mm 2 mps 653 mmHg 27%
    14:00 +17°C° 0 mm 2 mps 653 mmHg 27%
    15:00 +17°C° 0 mm 2 mps 653 mmHg 27%
    16:00 +17°C° 0 mm 2 mps 653 mmHg 28%
    17:00 +16°C° 0 mm 2 mps 654 mmHg 31%
    18:00 +15°C° 0 mm 2 mps 654 mmHg 34%
    19:00 +13°C° 0 mm 2 mps 654 mmHg 37%
    20:00 +13°C° 0 mm 2 mps 654 mmHg 38%
    21:00 +12°C° 0 mm 3 mps 654 mmHg 38%
    22:00 +12°C° 0 mm 3 mps 654 mmHg 39%
    23:00 +11°C° 0 mm 3 mps 654 mmHg 39%
    Show more